Вернуться в каталог

STARLINK-35119

АктивенСвязьVLEO
NORAD 65508·PAYLOAD·🇺🇸 United States

Запущен Sep 5, 2025 с Cape Canaveral Space Force Station

Loading…

Ближайшие Пролёты (ближайшие 24 часа)

TLE

СвежийSource: CelesTrak SupGP

Эпоха: Sep 14, 2026, 22:58 UTC

1 65508C 25198S   26257.95743056 -.00108130  00000+0 -31961-2 0  2573
2 65508  53.1567 107.9483 0001291  84.9796 256.8376 15.34429999    14

Отслеживайте STARLINK-35119 в реальном времени с AllMySat

Download on the App Store